Regional Weather Roundup
Issued by NWS

Home | Current Version | Previous Version | Text Only | Print | Product List | Glossary On
Versions: 1 2 3 4 5 6 7 8 9 10 11 12 13 14 15 16 17 18 19 20 21 22 23 24 25 26 27 28 29 30 31 32 33 34 35 36 37 38 39 40 41 42 43 44 45 46 47 48 49 50
000
ASUS43 KMPX 261701
RWRMN
WEATHER ROUNDUP FOR MINNESOTA
NATIONAL WEATHER SERVICE TWIN CITIES/CHANHASSEN MN
1200 PM CDT WED JUL 26 2017


NOTE: "FAIR" INDICATES FEW OR NO CLOUDS BELOW 12,000 FEET WITH NO
SIGNIFICANT WEATHER AND/OR OBSTRUCTIONS TO VISIBILITY. N/A MEANS
CURRENT SKY AND/OR WEATHER CONDITIONS ARE NOT AVAILABLE.

MNZ060>063-068>070-261800-
   Twin Cities Metro

CITY           SKY/WX    TMP DP  RH WIND       PRES   REMARKS
TWIN CITIES    CLOUDY    75  70  84 W3        30.02S
ST PAUL        CLOUDY    75  73  93 SW6       30.01F
CRYSTAL        CLOUDY    77  67  71 W8        30.01R
BLAINE         PTSUNNY   79  70  73 CALM      30.02S
LAKEVILLE      PTSUNNY   72  72 100 W5        30.03S
SOUTH ST PAUL  CLOUDY    74  73  93 W6        30.01F
LAKE ELMO      FAIR      73  72  94 W5        30.03S
$$
MNZ001>005-007-008-013>017-022>024-027-028-261800-
   Northwest Minnesota

CITY           SKY/WX    TMP DP  RH WIND       PRES   REMARKS
BEMIDJI        MOSUNNY   76  59  55 N8        30.04S
HALLOCK        MOSUNNY   73  64  73 N8        30.05S
ROSEAU         SUNNY     75  63  64 N10G16    30.03S
WARROAD        MOSUNNY   73  63  68 NW8       30.03S
CROOKSTON      MOSUNNY   75  63  64 N12       30.07R
FOSSTON        MOSUNNY   75  61  60 W12       30.06S
DETROIT LAKES  SUNNY     73  61  64 N12       30.08S
MOORHEAD       SUNNY     77  63  61 N10       30.07S
PARK RAPIDS    MOSUNNY   78  58  49 N10G17    30.05S
MAHNOMEN       FAIR      74  60  61 NW8       30.06S
$$
MNZ006-009>011-018-025>026-261800-
   North Central Minnesota

CITY           SKY/WX    TMP DP  RH WIND       PRES   REMARKS
BAUDETTE       MOSUNNY   76  61  59 NW14      30.01R
FLAG ISLAND    SUNNY     73  59  60 NW12      30.01R
INTL FALLS     PTSUNNY   76  59  55 W10       29.98S
WASKISH        CLOUDY    75  61  60 NW7       30.02S
BIG FORK       MOSUNNY   77  61  57 W5        30.01F
LONGVILLE      SUNNY     75  59  57 NW5       30.04S
GRAND RAPIDS   PTSUNNY   75  61  61 VRB3      30.04S
CRANE LAKE     MOSUNNY   73  57  56 NW7       30.00R
ORR            SUNNY     75  54  46 NW5       29.98S
COOK             N/A     73  57  56 SW10      30.01S
WALKER         FAIR      76  59  57 NW6       30.04S
$$
MNZ012-019>021-037-261800-
   Northeast Minnesota

CITY           SKY/WX    TMP DP  RH WIND       PRES   REMARKS
DULUTH         MOSUNNY   77  61  57 W9        30.00S
ELY            MOSUNNY   73  55  53 NW5       29.99S
HIBBING        MOSUNNY   74  57  55 N9        30.01S
EVELETH        SUNNY     76  47  35 W10       30.02S
DULUTH HARBOR  MOSUNNY   79  63  57 SW7       29.99S
GRAND MARAIS     N/A     67  60  78 SW10      29.94
$$
MNZ029>031-032-039>041-046>048-054>057-064-261800-
   West Central Minnesota

CITY           SKY/WX    TMP DP  RH WIND       PRES   REMARKS
FERGUS FALLS   SUNNY     75  61  60 NW7       30.06S
WHEATON        SUNNY     77  57  50 CALM      30.09S
MORRIS         PTSUNNY   79  61  53 N5        30.07S
ALEXANDRIA     SUNNY     77  60  55 VRB3      30.09R
ELBOW LAKE     FAIR      75  61  60 N5        30.08S
WADENA         SUNNY     75  59  57 W7        30.06R
GLENWOOD       SUNNY     77  61  57 N3        30.08F
APPLETON       CLOUDY    77  59  53 NE5       30.07S
BENSON         CLOUDY    79  59  50 E3        30.08S
ORTONVILLE     CLOUDY    77  59  53 MISG      30.08S
MADISON        CLOUDY    79  63  57 NE8       30.07S
WILLMAR        FAIR      75  63  64 N3        30.07S
$$
MNZ033>034-036-042>043-049>051-058-059-261800-
   Central Minnesota

CITY           SKY/WX    TMP DP  RH WIND       PRES   REMARKS
ST CLOUD       CLOUDY    77  62  59 VRB3      30.04S
SAUK CENTRE    FAIR      76  58  54 N5        30.07S
PAYNESVILLE    CLOUDY    75  62  64 CALM      30.06F
AITKIN         MOSUNNY   75  61  60 NW5       30.02S
PINE RIVER     SUNNY     75  61  60 NW6       30.07S
BRAINERD       MOSUNNY   77  58  51 VRB6G18   30.05R
STAPLES        SUNNY     77  57  50 CALM      30.05S
LONG PRAIRIE   FAIR      75  61  60 SW6       30.07S
LITTLE FALLS   SUNNY     75  55  50 CALM      30.06R
LITCHFIELD     CLOUDY    79  66  65 NW3       30.05S
BUFFALO        CLOUDY    76  65  67 NW3       30.04F
MAPLE LAKE     CLOUDY    78  68  72 NW5       30.05S
HUTCHINSON     SUNNY     78  69  74 NW3       30.04F
$$
MNZ037-044-045-052-053-261800-
   East Central Minnesota

CITY           SKY/WX    TMP DP  RH WIND       PRES   REMARKS
PRINCETON      CLOUDY    81  63  54 W3        30.04S
MORA           CLOUDY    75  57  53 CALM      30.04S
CAMBRIDGE      CLOUDY    79  63  57 NW6       30.02R
RUSH CITY      HVY RAIN  75  66  72 CALM      30.03S
MOOSE LAKE     MOSUNNY   75  61  60 NW5       30.00F
HINCKLEY       FAIR      77  61  57 CALM      30.02S
CLOQUET        MOSUNNY   77  57  50 CALM      30.01F
MCGREGOR       PTSUNNY   75  59  57 W7        30.03S
$$
MNZ071>073-080-081-089-090-097-098-261800-
   Southwest Minnesota

CITY           SKY/WX    TMP DP  RH WIND       PRES   REMARKS
MONTEVIDEO     CLOUDY    77  64  65 E3        30.07S
GRANITE FALLS  CLOUDY    79  64  59 NE6       30.07S
CANBY          CLOUDY    80  62  53 CALM      30.08S
MARSHALL       CLOUDY    76  69  79 NE9       30.05F
REDWOOD FALLS  MOSUNNY   77  69  76 VRB3      30.04S
OLIVIA         CLOUDY    77  64  65 E3        30.04S
PIPESTONE      CLOUDY    77  70  78 E8        30.06S
WINDOM         CLOUDY    75  70  83 NE6       30.05S
WORTHINGTON    CLOUDY    74  69  85 N8        30.06R
JACKSON        CLOUDY    73  68  83 CALM      30.05R
TRACY          CLOUDY    74  71  88 NE5       30.06R
SLAYTON        HVY RAIN  73  68  84 NE5       30.07S
$$
MNZ065>067-074>077-082>085-091>093-261800-
   South Central Minnesota

CITY           SKY/WX    TMP DP  RH WIND       PRES   REMARKS
MANKATO        CLOUDY    73  70  90 N6        30.03R
NEW ULM        CLOUDY    73  70  88 E3        30.02F
ST JAMES       CLOUDY    75  70  83 CALM      30.04S
FAIRMONT       CLOUDY    73  70  90 S6        30.03S
GLENCOE        CLOUDY    76  73  90 NW6       30.03S
FARIBAULT      DRIZZLE   72  72 100 NW5       30.03F
OWATONNA       CLOUDY    73  72  94 NW6       30.02F
WASECA         CLOUDY    72  70  94 CALM      30.03F
ALBERT LEA     PTSUNNY   73  72  94 SE5       30.02F
$$
MNZ078>079-086>088-094>096-261800-
   Southeast Minnesota

CITY           SKY/WX    TMP DP  RH WIND       PRES   REMARKS
ROCHESTER      LGT RAIN  72  70  93 S10       30.04R
RED WING       LGT RAIN  73  70  88 NW5       30.01F
STANTON        RAIN      73  69  89 NW5       30.01F
DODGE CENTER   CLOUDY    75  70  83 SW3       30.02S
WINONA         PTSUNNY   77  68  73 CALM      30.01F
AUSTIN         PTSUNNY   73  70  88 SE3       30.02F
PRESTON        PTSUNNY   73  69  90 SW7       30.06R
$$
ABBREVIATIONS USED IN REMARKS
   TC - TEMPERATURES IN CELSIUS
  WCI - WIND CHILL INDEX
   HX - HEAT INDEX
  VSB - VISIBILITY
$$




USA.gov is the U.S. government's official web portal to all federal, state and local government web resources and services.